Regional Weather Roundup
Issued by NWS

Home | Current Version | Previous Version | Text Only | Print | Product List | Glossary On
Versions: 1 2 3 4 5 6 7 8 9 10 11 12 13 14 15 16 17 18 19 20 21 22 23 24 25 26 27 28 29 30 31 32 33 34 35 36 37 38 39 40 41 42 43 44 45 46 47 48 49 50
000
ASUS43 KDTX 281001
RWRMI
MICHIGAN HOURLY REGIONAL WEATHER ROUNDUP
NATIONAL WEATHER SERVICE DETROIT/PONTIAC MI
600 AM EDT SAT MAR 28 2015

NOTE: "FAIR" INDICATES FEW OR NO CLOUDS BELOW 12,000 FEET WITH NO
SIGNIFICANT WEATHER AND/OR OBSTRUCTION TO VISIBILITY.

MIZ047>049-052>055-059>063-066>070-074>076-081>083-281100-
SOUTHEAST LOWER MICHIGAN

CITY           SKY/WX    TMP DP  RH WIND       PRES   REMARKS
ADRIAN         CLEAR     15   6  67 N6        30.19R WCI   6
ALMA           CLEAR     12   6  75 NW5       30.23R WCI   4
ANN ARBOR      CLEAR     15   6  67 N9        30.18R WCI   3
BAD AXE        CLOUDY    20   7  56 NE5       30.18R WCI  13
CARO           CLOUDY    17  11  75 NW8       30.19R WCI   7
DETROIT CITY   CLOUDY    20   6  55 VRB6      30.17R WCI  12
DETROIT        CLOUDY    18   6  59 NW8       30.19R WCI   8
FLINT          PTCLDY    15   6  67 NW8       30.19R WCI   4
GROSSE ILE     CLOUDY    18   7  62 NW9       30.17R WCI   6
HILLSDALE      CLEAR     13   6  73 NW3       30.16R
HOWELL         CLEAR     14   8  79 NW6       30.18R WCI   5

CITY           SKY/WX    TMP DP  RH WIND       PRES   REMARKS
JACKSON        FAIR      12   7  80 W3        30.19R
LAMBERTVILLE   CLOUDY    19   9  63 NW3       30.20R
LANSING        CLEAR     14   5  67 NW6       30.21R WCI   5
LAPEER         CLOUDY    18  10  70 N9        30.17R WCI   6
MASON          CLEAR     12   7  80 CALM      30.20R
MONROE         MOCLDY    18   9  68 NW7       30.17R WCI   8
MT. CLEMENS    FLURRIES  19  12  73 N7        30.14R WCI  10
PONTIAC        CLOUDY    15   5  64 NW10      30.15R WCI   2
PORT HOPE        N/A     22   8  55 N10       30.16R WCI  11
PORT HURON     MOCLDY    18   7  62 NE7       30.17R WCI   8
TRI CITIES     CLEAR     16   6  65 N12       30.21S WCI   3
TROY           CLOUDY    19   7  59 NW8G16    30.18S WCI   9
SAGINAW HB     FAIR      16   9  73 NW8       30.21R WCI   5
$$
MIZ043>046-050>051-056>058-064>065-071>073-077>080-281100-
SOUTHWEST LOWER MICHIGAN

CITY           SKY/WX    TMP DP  RH WIND       PRES   REMARKS
BATTLE CREEK   CLEAR     14   5  67 N5        30.21R WCI   6
BENTON HARBOR  CLEAR     14   4  64 NE3       30.24R
BIG RAPIDS     CLEAR      9   4  80 CALM      30.21R
COLDWATER      CLEAR     15   7  70 CALM      30.19R
FREMONT        FAIR      10   1  68 CALM      30.24R
HOLLAND        CLEAR     15   4  61 CALM      30.25R
GRAND RAPIDS   CLEAR     13   3  64 NE3       30.22R
IONIA          FAIR      13   5  71 N3        30.21R
KALAMAZOO      CLEAR     15   4  61 N5        30.21R WCI   8
LUDINGTON      CLEAR     10   6  81 CALM      30.27R
MARSHALL       CLEAR     10   6  85 CALM      30.20R
MOUNT PLEASANT CLEAR     12   5  75 CALM      30.22R
MUSKEGON       CLEAR     14   4  64 N3        30.26R
SOUTH HAVEN    CLEAR     14   4  64 CALM      30.24R
$$
MIZ016>042-281100-
NORTHERN LOWER MICHIGAN

CITY           SKY/WX    TMP DP  RH WIND       PRES   REMARKS
ALPENA         CLEAR     10   6  84 W3        30.22R
BEAVER ISLAND  CLEAR      4   1  85 CALM      30.25S
BELLAIRE       CLEAR      6   3  86 CALM      30.27R
CADILLAC       CLEAR      4  -1  80 CALM      30.18R
CHARLEVOIX     CLEAR      6   3  87 CALM      30.28R
FRANKFORT      CLEAR     10   2  71 CALM      30.26S
GAYLORD        CLEAR      5   0  79 CALM      30.18R
GRAYLING       CLEAR      3  -1  81 CALM      30.20R
HARBOR SPRINGS CLEAR      6   3  87 CALM      30.25R
HOUGHTON LAKE  CLEAR      5   0  79 CALM      30.20R
MANISTEE       FAIR       7   1  78 CALM      30.26R
OSCODA         CLEAR     12   8  86 NW7       30.20R WCI   1
PELLSTON       CLEAR      2  -1  88 W5        30.25R WCI  -8
ROGERS CITY    CLEAR      8   6  92 SW3       30.24R
TRAVERSE CITY  CLEAR      8   4  83 CALM      30.26R
$$
MIZ007>008-015-281100-
EASTERN UPPER MICHIGAN

CITY           SKY/WX    TMP DP  RH WIND       PRES   REMARKS
KINROSS        CLEAR      1   0  92 NW3       30.23R
MACKINAC ISLAN CLEAR      8   5  88 N7        30.23R WCI  -4
NEWBERRY       CLEAR      7   4  87 NW5       30.23R WCI  -1
S. S. MARIE    CLEAR      3  -1  83 W3        30.23R
$$
MIZ004>006-011>014-085-281100-
CENTRAL UPPER MICHIGAN

CITY           SKY/WX    TMP DP  RH WIND       PRES   REMARKS
MANISTIQUE     PTCLDY     0  -3  88 NW6       30.25S WCI -12
ESCANABA       PTCLDY     1  -2  85 CALM      30.26S
MENOMINEE      CLEAR     10   3  72 CALM      30.25S
SAWYER-GWINN   CLEAR     -3  -7  83 CALM      30.19F
$$
MIZ001>003-009>011-084-281100-
WESTERN UPPER MICHIGAN

CITY           SKY/WX    TMP DP  RH WIND       PRES   REMARKS
IRON MOUNTAIN  CLEAR      3  -3  76 CALM      30.20S
HOUGHTON       CLEAR     -4  -8  83 NW3       30.19R
COPPER HARBOR    N/A      1  -4  79 SW7       30.23R WCI -12
IRONWOOD       CLEAR      5   5 100 CALM      30.16S
$$

ABBREVIATIONS USED IN REMARKS
   TC - TEMPERATURE IN CELSIUS
  WCI - WIND CHILL INDEX
   HX - HEAT INDEX
  VSB - VISIBILITY



USA.gov is the U.S. government's official web portal to all federal, state and local government web resources and services.